User: anonymous   Login
Location: Unspecified
(0.0000°N, 0.0000°E)
Time: 03:31:30
(UTC+00:00)
Language:

NODES 1 - Orbit

View from above orbital plane
View from above orbital plane
View from above satellite
View from above satellite

Ground track
Ground track

The orbit data is extracted from the following two-line orbital elements,

1 41477U 98067HX  17112.89488722 +.00100671 +00000-0 +63035-3 0  9998
2 41477 051.6303 289.4140 0003632 243.3513 116.7115 15.76005748053335
Epoch (UTC): 22 April 2017 21:28:38
Eccentricity: 0.0003632
inclination: 51.6303°
perigee height: 339 km
apogee height: 344 km
right ascension of ascending node: 289.4140°
argument of perigee: 243.3513°
revolutions per day: 15.76005748
mean anomaly at epoch: 116.7115°
orbit number at epoch: 5333

The dashed part of the orbit path shows where the satellite is in the earth's shadow,  

DLR